map of CCK home
CCK - Airport
Location
City:  West Island, Keeling Cocos
Near (Alt.):Pulau Panjang
Name:Cocos (Keeling) Islands
ICAO:YPCC
IATA:CCK

Details
Type:Airport (Aerodrome, Airfield)
Latitude:1211'18"S (-12.188332)
Longitude:9650'02"E (96.833889)
Datum:WGS 1984
Elevation:10 ft (3 m)
Variation:1.93W (WMM2015 magnetic declination)
0.07 annual change
Runways:1
Longest:7999 × 148 ft (2438 × 45 m), paved

Time
Time Zone:UTC+6:30
Local Time:

Weather
METAR:YPCC 190200Z AUTO 14009KT 9999 // SCT034 OVC058 28/19 Q1011
TAF:YPCC 180512Z 1806/1906 14010KT 9999 -SHRA SCT030

Related Locations
Nearby:
Farthest:RNI: 12443 mi / 20025 km
Corn Island [Intl], AS, NI

Find:

   beyond  
but within

Other Information
Maps:
NOTAMs:
Links:
Sources:

  
flag of Keeling Cocos   

Sectional Chart

Flight Planning
at skyvector.com

Satellite Image

Google Maps Satellite view

 

Copyright © 2004-2017 Karl L. Swartz. All rights reserved.
The Great Circle Mapper name and logo are trademarks of the Great Circle Mapper.
All other trademarks mentioned herein belong to their respective owners.
Please see credits for attibutions and further copyright information.

  Follow gcmap on Facebook Follow gcmap on Twitter Follow gcmap on Google+ GCmap on LinkedIn

hCard Microformat

Geo Microformat